Regional Weather Roundup
Issued by NWS Columbia, SC

Home | Current Version | Previous Version | Text Only | Print | Product List | Glossary On
Versions: 1 2 3 4 5 6 7 8 9 10 11 12 13 14 15 16 17 18 19 20 21 22 23 24 25 26 27 28 29 30 31 32 33 34 35 36 37 38 39 40 41 42 43 44 45 46 47
000
ASUS42 KCAE 291310
RWRCAE
REGIONAL WEATHER ROUNDUP
NATIONAL WEATHER SERVICE COLUMBIA SC
900 AM EDT FRI MAY 29 2015

NOTE: "FAIR" INDICATES FEW OR NO CLOUDS BELOW 12,000 FEET WITH NO
SIGNIFICANT WEATHER AND/OR OBSTRUCTIONS TO VISIBILITY.

NOT ALL STATIONS ARE QUALITY CONTROLLED BY THE NATIONAL
WEATHER SERVICE. USE DATA WITH CAUTION...ESPECIALLY
DEWPOINT OBSERVATIONS.

SCZ001>056-GAZ040-063>065-077-291400-
...UPSTATE SOUTH CAROLINA...

CITY           SKY/WX    TMP DP  RH WIND       PRES   REMARKS
ANDERSON       CLOUDY    69  66  90 CALM      30.26R
LIBERTY        CLOUDY   N/A N/A N/A E6        30.26R
SPARTANBURG    MOSUNNY  N/A N/A N/A CALM      30.26R
CLEMSON        CLOUDY    70  65  84 SE3       30.27R
GREENVILLE     CLOUDY    70  64  81 E3        30.28R
GREENWOOD      PTSUNNY   68  65  90 CALM      30.27R
GREER          CLOUDY    70  66  87 E5        30.26R
ROCK HILL      CLOUDY    70  65  84 VRB3      30.27R
CHESTER        CLOUDY    72  66  83 S3        30.27R
LAURENS        CLOUDY    68  68 100 CALM      30.26R


...CENTRAL SOUTH CAROLINA...

CITY           SKY/WX    TMP DP  RH WIND       PRES   REMARKS
COLUMBIA APT   MOSUNNY   74  63  68 E5        30.23R
COLUMBIA OWENS SUNNY     75  63  66 SE3       30.24S
DARLINGTON     SUNNY     75  63  64 SE3       30.25S
FLORENCE       SUNNY     76  65  68 CALM      30.24R
MCENTIRE ANGB  PTSUNNY   74  64  72 E1        30.24R
ORANGEBURG     SUNNY     74  64  71 NE5       30.23R
SUMTER SHAW    SUNNY     73  64  71 NE3       30.22R
AIKEN          FAIR      72  59  64 SE6       30.27R
BARNWELL       FAIR      73  66  78 NE3       30.23R
MANNING        FAIR      72  52  49 NE3       30.23S
CAMDEN         FAIR      73  63  68 CALM      30.25R
LANCASTER      LGT RAIN  70  68  94 CALM      30.26R
WINNSBORO      MOSUNNY   73  63  68 S3        30.25R


...EASTERN AND COASTAL SOUTH CAROLINA...

CITY           SKY/WX    TMP DP  RH WIND       PRES   REMARKS
MYRTLE BEACH   SUNNY     77  64  65 NE8       30.25R
N MYRTLE BCH   SUNNY     76  65  68 E7        30.23R
CONWAY         FAIR      73  64  73 NE8       30.24R
MARION         FAIR      73  64  73 CALM      30.25R
HARTSVILLE     FAIR      73  63  68 CALM      30.24R
FLORENCE       SUNNY     76  65  68 CALM      30.24R
DARLINGTON     SUNNY     75  63  64 SE3       30.25S
CHARLESTON APT MOSUNNY   76  65  68 NE10      30.21R
MOUNT PLEASANT FAIR      75  66  73 N3        30.21S
WALTERBORO     SUNNY     72  63  73 NE9       30.22R
BEAUFORT       MOSUNNY   77  65  66 NE7       30.20R


...EASTERN GEORGIA...

CITY           SKY/WX    TMP DP  RH WIND       PRES   REMARKS
AUGUSTA BUSH F SUNNY     73  64  73 VRB5      30.22R
AUGUSTA DANIEL SUNNY     73  62  68 SE5       30.24R
THOMSON        MOSUNNY   73  68  84 CALM      30.28R
WASHINGTON     PTSUNNY   70  70 100 CALM      30.24R
CLAXTON        FAIR      73  68  83 E3        30.20R
SYLVANIA       SUNNY     75  67  77 E5        30.22R
STATESBORO     SUNNY     74  71  92 E5        30.21R
SAVANNAH       MOSUNNY   76  63  64 NE7       30.19R


...SOUTHERN NORTH CAROLINA...

CITY           SKY/WX    TMP DP  RH WIND       PRES   REMARKS
CHARLOTTE      CLOUDY    72  63  73 W5        30.27R
MONROE         CLOUDY    71  64  78 SW5       30.25R
WADESBORO      SUNNY     74  64  71 CALM      30.25R
ROCKINGHAM     SUNNY     73  63  70 SW3       30.25S
RUTHERFORDTON  CLOUDY    68  66  92 CALM      30.29R
ASHEVILLE      CLOUDY    66  62  87 S3        30.31R

$$


USA.gov is the U.S. government's official web portal to all federal, state and local government web resources and services.